Wetbulb
37.37 38.20 39.20 40.07 40.34 40.15 39.87 40.11 41.10 41.22 40.74 39.78 39.37 39.08 38.63 37.82 38.26 38.72 38.84 38.30 38.55 38.77 39.02 39.02 38.93 38.76 38.09 36.64 36.10 35.95 35.91 35.91 35.81 36.62 37.58 37.80 37.25 36.90 36.62 36.45 36.28 36.03 35.95 36.10 35.99 35.96 35.77 35.37 35.26 35.11 35.08 35.07 34.54 34.09 33.86 33.91 33.39 33.07 32.88 32.72 32.74 32.58 32.13 31.54 31.49 31.36 31.30 31.23 31.66
36.96 37.67 39.04 41.01 42.01 41.40 40.42 40.30 40.66 40.90 40.78 39.89 39.48 39.15 38.86 38.53 38.83 39.00 38.96 38.37 38.96 39.04 39.09 39.46 38.49 37.54 36.79 36.50 36.48 36.15 35.84 35.81 35.48 36.02 36.76 37.07 36.86 36.76 36.61 36.43 36.22 36.03 35.88 35.68 35.57 35.75 35.96 35.56 35.16 34.93 34.90 34.78 34.48 34.11 33.97 34.24 33.71 33.08 32.56 32.10 32.64 32.71 32.43 31.92 31.75 31.60 31.40 31.20 31.47
36.62 37.10 37.64 38.18 39.11 39.43 39.51 39.71 39.67 39.29 39.00 39.33 39.10 38.81 38.59 38.29 38.90 39.33 39.53 39.49 38.82 38.08 38.01 39.17 38.70 37.73 36.70 36.40 36.21 35.95 35.85 35.91 35.50 35.58 36.04 36.45 36.46 36.36 36.33 36.40 35.99 36.08 36.23 36.19 35.80 35.83 36.00 35.68 35.59 35.51 35.31 34.73 34.19 33.95 33.87 33.88 33.75 33.24 32.56 32.05 32.52 32.71 32.56 32.32 32.13 31.94 31.82 31.76 31.56
34.74 35.06 35.50 36.03 36.43 37.05 38.01 39.32 39.11 38.57 38.51 39.29 37.83 37.34 37.65 38.26 38.78 39.07 38.90 38.15 37.13 37.13 37.82 38.97 39.01 38.57 37.91 37.39 36.14 35.66 35.99 37.00 36.48 36.02 35.86 36.20 36.27 36.08 35.95 35.80 35.67 35.69 35.71 35.81 35.55 35.49 35.51 35.41 35.67 35.75 35.51 34.77 34.06 33.79 33.90 34.20 33.85 33.50 33.12 32.78 32.78 32.63 32.46 32.49 32.43 32.28 32.12 32.04 31.88
33.70 34.28 35.24 36.35 36.04 36.54 37.16 37.27 37.36 37.78 38.02 37.53 36.81 36.44 36.53 37.25 37.95 37.68 37.13 37.01 37.93 38.67 38.92 38.15 38.43 38.68 38.41 37.11 35.81 35.17 35.22 35.78 37.79 37.81 37.02 36.58 36.43 36.28 36.08 35.53 35.54 35.62 35.60 35.53 35.27 35.25 35.15 34.80 35.37 35.51 35.33 35.00 34.55 34.30 34.10 33.94 33.60 33.31 33.23 33.27 33.15 32.86 32.59 32.46 32.50 32.38 32.28 32.10 32.03
33.48 33.30 33.27 33.80 34.02 34.78 35.33 34.92 35.27 35.96 36.36 36.02 35.59 35.64 35.93 36.34 36.15 36.32 36.91 37.86 38.45 38.13 37.57 37.38 38.36 39.01 38.66 36.53 35.77 35.46 35.31 35.10 36.41 36.84 36.78 36.54 36.75 36.53 36.02 35.58 35.45 35.54 35.71 35.64 35.28 35.01 34.78 34.54 35.15 35.32 35.15 34.94 34.63 34.47 34.24 33.63 33.49 33.26 33.04 33.01 32.96 32.88 32.60 32.35 32.50 32.42 32.15 31.86 31.44
33.26 32.99 32.58 32.25 32.12 32.72 33.30 33.25 33.34 33.37 33.41 33.57 33.52 34.04 34.92 35.77 35.06 34.88 35.36 36.83 36.99 36.80 37.03 38.44 38.27 38.41 37.98 36.21 36.01 35.83 35.75 35.98 35.94 35.67 35.62 36.16 36.31 36.27 36.25 36.04 35.75 35.61 35.56 35.60 35.28 35.01 34.78 34.47 34.78 35.09 35.49 35.89 35.23 34.51 33.90 33.56 33.45 33.15 32.91 32.70 32.97 32.85 32.51 32.02 32.21 32.26 32.02 31.27 30.61
31.29 31.66 31.96 32.00 31.58 31.40 31.44 31.57 31.58 31.71 31.84 32.27 32.65 32.91 33.30 33.65 33.49 33.57 33.86 34.24 34.85 35.62 36.45 37.11 36.02 35.72 35.73 35.58 35.87 35.96 35.86 35.52 35.76 35.70 35.62 35.95 35.72 35.69 35.78 35.69 35.60 35.46 35.39 35.43 35.20 34.97 34.78 34.76 34.84 34.81 34.78 34.98 34.92 34.58 33.96 33.10 32.73 32.48 32.45 32.44 32.88 32.90 32.61 32.06 31.78 31.71 31.55 30.95 30.31
30.58 30.83 30.93 30.71 30.40 30.33 30.23 30.06 29.84 30.18 30.70 31.22 31.88 32.17 32.25 32.42 32.14 32.01 32.34 33.38 35.02 35.48 35.45 35.59 35.11 34.60 34.10 34.06 34.68 35.26 35.67 35.86 35.63 35.61 35.72 35.71 35.47 35.44 35.53 35.56 35.35 35.37 35.48 35.59 35.21 34.67 34.38 34.64 34.86 34.95 34.75 34.68 34.68 34.45 33.90 32.84 32.09 31.77 31.91 32.23 32.54 32.68 32.58 32.38 31.62 31.21 30.91 30.57 30.01
32.60 32.38 31.77 31.07 30.31 30.00 29.73 28.80 28.44 28.74 29.48 30.42 30.89 31.12 31.97 34.74 34.56 33.85 33.66 35.13 35.74 35.53 35.06 35.09 34.89 34.49 34.05 33.85 34.49 35.01 35.41 35.74 35.65 35.34 35.17 35.50 35.56 35.35 35.26 35.42 35.20 35.26 35.43 35.60 35.40 34.74 34.21 34.30 34.48 34.54 34.54 34.54 34.17 33.72 33.24 32.51 31.89 31.47 31.56 32.36 32.42 32.14 31.87 31.97 31.45 30.95 30.65 30.55 29.95
33.33 33.08 32.64 32.41 31.28 31.31 31.06 29.15 29.41 30.01 30.62 30.94 31.13 31.04 31.68 33.92 34.19 34.24 34.41 34.98 34.41 34.25 34.51 35.17 34.72 34.62 34.68 34.95 35.32 35.57 35.65 35.80 35.73 35.41 35.04 34.85 35.31 35.26 35.01 34.88 34.73 34.78 34.96 35.23 35.25 34.91 34.49 34.29 34.13 33.82 33.71 34.00 33.70 33.22 32.69 32.17 31.71 31.41 31.38 31.98 32.00 31.54 31.17 31.20 31.24 31.01 30.64 30.52 29.97
32.87 32.66 32.22 31.83 30.73 30.35 30.20 29.83 30.81 31.72 32.20 32.02 32.00 32.00 32.19 32.56 32.79 33.45 33.95 33.67 33.35 34.04 34.69 34.75 34.58 34.59 34.94 35.88 35.87 36.22 36.27 35.48 34.99 34.72 34.59 34.42 34.36 34.31 34.28 34.08 34.05 34.14 34.38 34.62 34.70 34.72 34.56 34.06 33.70 33.30 33.01 33.06 33.44 33.36 32.86 32.08 31.70 31.36 31.18 31.26 31.27 31.11 30.83 30.78 30.81 31.02 30.95 30.63 30.01
32.42 32.27 31.99 31.52 30.15 29.46 29.50 30.51 31.45 32.01 32.22 32.11 32.52 33.12 33.74 34.20 33.87 33.90 33.76 32.92 33.76 34.88 35.57 35.31 34.71 34.60 34.92 35.57 35.79 35.91 35.84 35.44 34.70 34.57 34.66 34.50 34.31 34.09 33.74 33.67 33.58 33.67 33.82 34.11 34.20 34.19 34.06 33.62 33.05 32.69 32.50 32.43 33.03 33.18 32.95 32.19 31.74 31.40 31.21 31.04 30.90 30.73 30.66 30.54 30.58 30.71 30.67 30.23 29.96
31.67 31.57 31.55 31.23 30.22 29.88 30.15 31.18 31.88 32.30 32.38 32.05 33.08 33.75 34.15 34.33 34.51 34.38 34.01 33.42 34.26 35.02 35.46 35.45 35.62 35.93 36.11 35.78 35.79 35.58 35.34 35.27 34.68 34.26 34.09 34.42 34.39 33.99 33.64 33.58 33.30 33.36 33.52 33.82 33.71 33.36 33.08 33.07 32.75 32.50 32.26 32.15 32.40 32.60 32.59 32.23 31.90 31.66 31.41 31.14 30.81 30.66 30.56 30.59 30.52 30.46 30.16 29.66 29.71
31.75 31.47 31.13 30.63 30.08 30.18 30.67 31.48 32.13 32.53 32.66 32.82 33.93 34.12 34.06 34.56 35.10 35.10 34.75 34.01 34.33 34.79 35.14 35.17 36.11 36.66 36.65 35.84 35.38 35.04 34.80 34.65 34.30 34.04 33.96 34.15 34.13 33.88 33.63 33.49 33.29 33.29 33.39 33.58 33.35 33.06 32.69 32.57 32.48 32.38 32.25 32.09 32.07 32.05 32.11 32.02 31.92 31.86 31.68 31.40 31.20 30.97 30.82 30.68 30.51 30.32 29.96 29.59 29.39
32.51 32.27 31.63 30.95 30.76 31.02 31.60 32.16 32.93 33.07 33.26 34.18 34.49 34.30 34.12 34.82 35.16 35.11 34.89 34.51 34.89 35.24 35.51 35.44 35.97 36.36 36.49 36.42 35.76 35.02 34.45 34.26 33.96 33.80 33.69 33.72 33.78 33.71 33.52 33.33 33.21 33.19 33.17 33.07 33.11 32.99 32.80 32.68 32.53 32.35 32.13 32.02 31.99 31.95 31.88 31.85 31.86 31.70 31.67 31.53 31.46 31.30 31.15 31.08 30.84 30.44 30.05 29.84 29.56
33.46 33.24 32.79 32.28 32.28 32.50 32.90 33.36 33.66 33.89 34.13 34.80 34.61 34.48 34.56 34.98 35.07 35.50 36.05 36.46 36.36 36.25 36.10 35.92 36.35 36.54 36.70 36.99 36.68 35.72 34.74 34.67 34.29 34.17 34.06 34.01 33.76 33.58 33.41 33.23 33.32 33.24 33.16 33.03 33.02 32.92 32.92 32.79 32.71 32.47 32.14 31.94 31.88 31.85 31.82 31.71 31.66 31.53 31.39 31.35 31.36 31.29 31.34 31.71 31.46 30.88 30.40 30.15 30.12
34.49 34.48 34.25 33.91 33.84 33.86 33.94 34.00 34.15 34.29 34.35 34.59 34.66 34.77 34.95 35.27 35.31 35.93 36.60 36.92 36.47 36.10 35.86 35.87 36.24 36.37 36.27 36.00 36.16 35.94 35.56 35.37 34.97 34.75 34.62 34.38 33.99 33.63 33.50 33.33 33.40 33.28 33.13 33.03 33.00 33.02 32.96 32.92 32.72 32.56 32.31 32.06 31.91 31.83 31.74 31.55 31.47 31.27 31.19 31.10 31.08 31.04 31.10 31.42 31.32 31.12 30.80 30.46 30.60
35.31 35.49 35.40 35.30 35.17 34.99 34.92 35.14 35.16 35.10 35.06 35.02 35.10 35.14 35.23 35.27 35.19 35.59 36.12 36.38 36.64 36.41 36.06 36.04 36.24 36.24 36.10 35.64 35.46 35.76 36.05 35.55 34.91 34.59 34.45 34.28 34.06 33.87 33.61 33.54 33.43 33.31 33.16 33.06 33.06 33.04 33.05 33.03 32.88 32.62 32.40 32.20 32.01 31.84 31.75 31.50 31.29 31.13 30.96 30.84 30.78 30.84 30.80 30.74 30.83 30.90 30.90 30.78 30.91
35.74 36.03 36.27 36.37 36.11 35.84 35.71 35.76 35.64 35.42 35.25 35.38 35.08 35.07 35.20 35.28 35.38 35.58 35.96 36.53 37.18 36.99 36.46 36.01 36.16 36.13 35.97 35.66 35.15 35.00 35.17 35.53 34.75 34.32 34.16 34.05 33.91 33.69 33.55 33.51 33.33 33.30 33.23 33.13 33.08 33.04 33.01 32.91 32.81 32.60 32.38 32.19 32.01 31.74 31.49 31.23 31.01 30.78 30.63 30.68 30.61 30.57 30.55 30.60 30.53 30.59 30.66 30.79 30.79
36.35 36.65 36.93 36.93 36.53 36.28 36.06 35.90 35.49 35.06 34.75 34.85 34.85 35.00 35.36 35.79 36.01 36.25 36.61 37.24 37.50 37.29 36.84 36.31 36.10 35.94 35.81 35.52 35.15 34.83 34.92 35.70 34.98 34.46 34.11 34.07 33.94 33.80 33.75 33.62 33.40 33.27 33.20 33.18 33.18 33.02 32.90 32.79 32.72 32.55 32.37 32.22 32.03 31.63 31.32 31.12 30.89 30.60 30.42 30.54 30.64 30.54 30.45 30.49 30.56 30.57 30.67 30.74 30.77
37.11 37.29 37.27 37.06 36.57 36.28 36.06 35.89 35.39 35.09 34.98 35.01 35.34 35.70 36.09 36.54 37.00 37.31 37.66 37.97 37.92 37.66 37.27 36.93 36.64 36.25 35.89 35.59 35.28 35.09 35.11 35.72 35.14 34.82 34.54 34.36 34.24 34.18 34.15 34.06 33.56 33.21 33.10 33.10 33.18 33.05 32.88 32.76 32.64 32.41 32.30 32.23 31.91 31.61 31.37 31.30 31.16 30.93 30.64 30.48 30.47 30.40 30.41 30.48 30.66 30.70 30.77 30.78 30.80
37.50 37.44 37.21 36.89 36.24 36.31 36.42 36.13 35.57 35.24 35.21 35.50 35.95 36.47 36.97 37.42 37.81 38.20 38.33 38.26 38.26 37.96 37.58 37.39 37.14 36.78 36.28 35.87 35.42 35.06 34.88 34.87 34.80 34.69 34.60 34.41 34.22 34.02 33.88 33.88 33.40 33.27 33.20 33.35 33.35 33.09 32.85 32.61 32.48 32.21 32.07 31.88 31.57 31.37 31.29 31.14 31.46 31.30 31.01 30.68 30.49 30.40 30.40 30.47 30.62 30.68 30.71 30.73 30.78
37.11 37.04 37.09 37.14 36.13 35.68 35.51 35.25 35.16 35.32 35.70 36.15 36.58 37.12 37.61 38.05 38.31 38.36 38.24 37.94 37.74 37.45 37.25 37.32 37.32 36.92 36.37 35.89 35.28 34.77 34.36 34.06 33.96 33.99 33.98 34.03 33.96 33.81 33.55 33.48 33.37 33.42 33.52 33.78 34.37 34.56 34.51 34.12 33.19 32.64 32.33 31.97 31.67 31.38 31.22 30.96 31.06 31.06 31.06 30.78 30.57 30.44 30.37 30.34 30.40 30.51 30.52 30.48 30.63
36.50 36.31 36.22 36.06 35.56 35.33 35.35 35.38 35.60 35.95 36.35 36.87 37.22 37.45 37.67 37.91 37.96 37.88 37.64 37.29 37.01 36.76 36.55 36.37 36.27 36.17 36.03 35.70 35.26 34.74 34.27 33.78 33.60 33.58 33.61 33.73 33.79 33.83 33.73 33.72 33.74 33.82 33.87 34.33 37.08 38.76 39.47 39.01 37.46 35.88 34.35 33.30 32.60 32.09 31.60 31.09 30.71 30.54 30.54 30.55 30.47 30.43 30.23 30.01 30.06 30.14 30.25 30.25 30.37
35.88 35.65 35.49 35.42 35.42 35.42 35.52 35.71 36.05 36.38 36.76 37.13 37.31 37.41 37.42 37.47 37.40 37.07 36.67 36.25 36.12 36.00 35.81 35.66 35.55 36.07 36.55 36.19 35.63 35.12 34.71 34.50 34.31 34.03 33.80 33.88 33.88 33.87 33.96 34.24 34.28 33.87 33.94 35.47 38.40 40.23 41.29 41.81 41.67 40.42 38.36 35.98 34.76 33.72 32.92 32.18 31.37 30.81 30.39 30.24 30.27 30.04 29.80 29.56 29.48 29.57 29.70 29.99 30.05
35.38 35.31 35.36 35.60 35.58 35.66 35.85 36.18 36.46 36.64 36.78 36.93 36.93 36.99 37.01 37.07 37.02 36.62 36.09 35.86 35.76 35.66 35.59 35.48 35.41 36.38 37.25 36.61 35.53 34.86 34.69 34.96 34.70 34.35 34.01 33.84 33.74 33.76 33.94 34.41 34.46 34.08 34.51 37.09 39.62 41.08 41.86 42.50 42.97 42.66 41.60 39.32 37.76 36.61 35.64 34.71 33.11 31.83 30.83 30.23 30.01 29.77 29.52 29.26 29.23 29.37 29.58 29.71 29.66
35.04 35.27 35.32 35.50 35.62 35.87 36.16 36.50 36.55 36.59 36.56 36.62 36.54 36.64 36.66 36.49 36.18 35.87 35.72 35.59 35.52 35.49 35.56 35.78 36.12 36.57 36.76 36.36 35.62 34.99 34.73 34.71 34.79 34.71 34.51 34.17 34.04 33.93 33.98 34.51 34.49 34.98 36.37 39.10 40.69 41.73 42.33 42.97 43.39 43.52 43.22 42.09 39.90 37.74 36.31 36.27 35.55 34.25 32.74 31.52 30.66 30.16 29.80 29.53 29.51 29.47 29.50 29.48 29.48
34.71 34.96 35.20 35.34 35.55 35.94 36.28 36.44 36.48 36.50 36.56 36.65 36.57 36.40 36.22 36.04 35.81 35.62 35.48 35.42 35.30 35.41 35.74 36.39 37.06 37.05 36.65 36.30 36.00 35.69 35.34 35.06 35.12 35.02 34.80 34.36 34.12 34.03 34.12 34.29 34.45 35.77 38.05 40.72 41.62 42.21 42.76 43.18 43.57 43.78 43.78 43.40 41.77 40.53 39.59 38.73 37.90 36.91 35.68 34.19 32.72 31.54 30.82 30.32 30.20 30.06 29.90 29.69 29.59
34.62 34.92 35.17 35.31 35.56 35.82 36.11 36.26 36.36 36.50 36.60 36.79 36.48 36.16 35.88 35.78 35.51 35.41 35.31 35.26 35.23 35.59 36.13 36.72 36.82 36.58 36.20 35.96 36.04 35.94 35.85 35.72 35.62 35.30 34.71 34.09 33.91 33.99 34.32 34.92 34.80 35.82 37.86 40.68 41.66 42.38 42.85 43.27 43.61 43.86 43.91 43.78 42.51 40.96 39.69 39.58 39.34 38.84 37.98 36.69 34.95 33.32 31.82 30.87 30.42 30.24 30.17 30.14 30.00
34.62 34.82 35.02 35.17 35.32 35.54 35.83 36.08 36.22 36.32 36.36 36.46 36.10 35.77 35.54 35.36 35.21 35.24 35.37 35.37 35.68 36.35 36.84 36.68 36.03 35.65 35.56 35.71 35.77 35.62 35.49 35.45 35.28 34.89 34.44 33.78 34.35 34.63 34.65 34.63 34.45 35.56 37.70 40.53 41.61 42.37 42.92 43.35 43.61 43.78 43.91 43.91 42.91 41.29 39.84 39.50 39.49 39.43 39.05 38.37 36.95 35.14 33.47 31.83 30.96 30.42 30.17 30.01 30.23
34.40 34.56 34.70 34.81 34.98 35.25 35.56 35.76 35.91 35.92 35.87 35.73 35.50 35.36 35.22 35.04 35.11 35.33 35.51 35.63 35.81 35.98 35.93 35.60 35.17 34.99 35.04 35.10 35.07 34.93 34.84 34.67 34.52 34.43 34.34 34.15 34.00 33.94 34.11 34.54 34.48 35.68 37.94 40.74 41.85 42.58 43.18 43.56 43.73 43.86 43.95 43.99 43.30 40.77 38.59 38.87 39.17 39.39 39.34 39.07 38.12 36.77 35.17 33.65 32.45 31.20 30.31 29.97 30.17
34.19 34.30 34.32 34.38 34.56 34.85 35.17 35.38 35.45 35.45 35.45 35.28 35.14 35.03 34.89 34.87 35.03 35.07 35.24 35.41 35.48 35.24 34.92 34.70 34.60 34.47 34.52 34.53 34.55 34.43 34.35 34.37 34.36 34.68 35.10 35.21 34.78 34.44 34.54 35.12 35.21 36.85 39.18 41.42 42.28 42.92 43.31 43.56 43.73 43.86 43.91 43.95 43.07 41.45 40.02 39.95 39.66 39.60 39.56 39.25 38.89 37.98 36.68 34.98 33.71 32.40 31.19 30.46 30.43
33.70 33.79 33.83 33.91 34.20 34.45 34.74 34.92 34.99 35.03 34.86 34.80 34.71 34.61 34.49 34.42 34.39 34.39 34.63 35.09 35.26 35.10 34.87 34.60 34.40 34.31 34.22 34.18 34.06 33.94 34.18 34.98 34.81 34.56 34.25 34.20 34.22 34.31 34.60 34.96 35.66 37.79 40.19 41.86 42.63 43.09 43.39 43.48 43.61 43.65 43.73 43.78 42.40 41.30 40.54 40.18 39.84 39.65 39.43 39.16 39.03 38.53 37.71 36.36 34.90 33.44 32.22 31.20 31.12
33.17 33.15 33.23 33.48 33.74 34.03 34.22 34.38 34.48 34.44 34.29 34.10 34.02 33.97 33.93 33.82 33.70 33.74 34.11 34.95 35.23 34.90 34.50 34.35 34.21 34.07 33.94 33.94 33.63 33.62 33.77 34.14 34.02 33.99 34.03 34.22 34.38 34.61 34.87 35.07 35.91 38.10 40.57 41.98 42.67 43.05 43.27 43.40 43.44 43.52 43.48 43.17 41.67 40.68 40.07 39.80 39.56 39.30 39.08 38.81 38.63 38.19 37.59 36.95 35.77 34.53 33.31 32.24 31.83
32.65 32.67 32.76 32.98 33.26 33.48 33.72 33.86 33.90 33.81 33.58 33.34 33.26 33.21 33.19 33.23 33.25 33.42 33.81 34.68 34.54 33.98 33.52 33.51 33.42 33.24 33.06 33.13 33.27 33.66 33.97 33.68 33.77 33.99 34.44 34.91 34.96 34.96 35.00 35.29 36.01 38.05 40.34 41.98 42.49 42.84 43.05 43.18 43.31 43.39 43.17 42.26 41.09 40.34 39.96 39.50 39.23 38.88 38.66 38.40 38.23 38.06 37.74 37.11 36.19 35.38 34.50 33.47 32.59
32.27 32.44 32.58 32.76 33.00 33.26 33.32 33.36 33.23 32.96 32.75 32.59 32.52 32.53 32.52 32.55 32.68 33.02 33.48 34.08 33.32 32.86 32.74 32.92 32.96 32.88 32.79 32.92 33.25 33.70 34.09 34.27 34.56 34.78 35.16 35.77 35.87 35.85 35.82 36.05 36.45 37.86 39.78 41.59 42.28 42.67 42.84 43.01 43.18 43.17 42.68 41.47 40.44 39.97 39.60 39.27 38.95 38.55 38.20 37.89 37.72 37.64 37.48 37.31 36.72 36.16 35.39 34.41 33.70
32.57 32.66 32.69 32.60 32.69 32.74 32.75 32.71 32.37 32.12 31.91 31.89 32.01 32.14 32.25 32.29 32.37 32.70 33.27 34.03 33.04 32.61 32.50 32.71 32.74 32.93 33.07 33.24 33.68 34.11 34.50 34.97 35.53 35.75 35.90 36.13 36.37 36.53 36.62 36.81 37.05 37.99 39.36 41.12 42.03 42.45 42.67 42.88 43.01 42.91 42.37 40.88 40.12 39.65 39.28 38.87 38.46 38.09 37.73 37.51 37.34 37.23 37.20 37.23 37.02 36.65 35.95 35.06 35.74
32.75 32.65 32.41 32.14 31.97 31.94 31.87 31.76 31.56 31.41 31.40 31.47 31.69 31.88 32.00 32.16 32.40 33.00 33.56 34.10 33.19 32.74 32.53 32.60 32.71 33.03 33.55 34.10 34.70 35.05 35.30 35.56 36.06 36.57 36.83 36.79 37.03 37.64 38.18 38.00 38.01 38.48 39.45 40.96 41.73 42.16 42.29 42.50 42.67 42.70 42.24 41.07 39.99 39.38 38.87 38.46 37.91 37.55 37.24 37.10 36.92 36.67 36.56 36.59 36.49 36.32 35.96 35.31 37.24
32.44 32.29 31.98 31.62 31.38 31.27 31.20 31.05 31.04 31.22 31.35 31.43 31.46 31.59 31.86 32.25 32.98 33.59 34.02 34.12 33.43 32.94 32.85 32.88 33.05 33.45 34.19 35.30 35.62 35.71 35.78 35.87 36.14 36.61 37.19 37.59 38.01 39.01 39.60 39.04 38.49 38.57 39.20 40.49 41.30 41.73 41.90 42.16 42.32 42.44 42.07 40.80 39.77 39.16 38.65 38.09 37.41 36.96 36.65 36.52 36.31 36.09 35.80 35.78 35.72 35.67 35.42 34.95 36.59
32.03 31.76 31.40 31.17 31.05 30.89 30.74 30.66 30.86 31.15 31.35 31.46 31.37 31.78 32.51 33.28 33.52 33.59 33.52 33.55 33.24 33.19 33.29 33.48 33.65 34.07 34.84 35.85 36.12 36.07 36.04 36.07 36.35 36.83 37.45 38.28 38.59 39.25 39.46 38.72 38.11 37.85 38.15 39.18 40.49 41.22 41.64 41.86 42.10 42.31 42.06 40.88 39.77 39.11 38.47 37.73 36.91 36.37 36.02 35.99 35.77 35.60 35.17 34.83 34.82 34.78 34.74 34.51 34.77
MSLP
1018.00 1017.88 1017.80 1017.76 1017.72 1017.72 1017.68 1017.56 1017.40 1017.32 1017.28 1017.24 1017.24 1017.16 1017.12 1017.20 1017.20 1017.08 1016.96 1016.96 1016.92 1016.80 1016.68 1016.56 1016.48 1016.36 1016.28 1016.24 1016.32 1016.36 1016.40 1016.40 1016.40 1016.40 1016.36 1016.36 1016.28 1016.24 1016.24 1016.24 1016.32 1016.36 1016.40 1016.40 1016.40 1016.44 1016.56 1016.60 1016.72 1016.84 1016.84 1016.84 1016.84 1016.88 1016.92 1016.88 1016.96 1016.96 1017.00 1017.00 1016.96 1017.00 1017.08 1017.16 1017.20 1017.20 1017.24 1017.28 1017.32
1017.72 1017.64 1017.56 1017.52 1017.44 1017.40 1017.36 1017.28 1017.16 1017.08 1016.96 1016.92 1016.88 1016.84 1016.84 1016.88 1016.88 1016.80 1016.68 1016.60 1016.52 1016.44 1016.36 1016.28 1016.16 1016.12 1016.12 1016.04 1016.04 1016.12 1016.16 1016.16 1016.12 1016.12 1016.12 1016.08 1015.96 1015.96 1015.96 1015.96 1016.00 1016.04 1016.04 1016.08 1016.12 1016.16 1016.24 1016.28 1016.44 1016.52 1016.52 1016.52 1016.56 1016.56 1016.52 1016.44 1016.56 1016.60 1016.60 1016.60 1016.56 1016.60 1016.68 1016.76 1016.68 1016.68 1016.80 1016.88 1016.96
1017.52 1017.48 1017.44 1017.40 1017.36 1017.28 1017.20 1017.08 1016.96 1016.84 1016.76 1016.68 1016.60 1016.56 1016.60 1016.60 1016.56 1016.48 1016.40 1016.28 1016.20 1016.20 1016.20 1016.08 1015.96 1015.88 1015.84 1015.84 1015.80 1015.84 1015.88 1015.88 1015.88 1015.88 1015.88 1015.84 1015.72 1015.68 1015.72 1015.72 1015.72 1015.72 1015.76 1015.80 1015.84 1015.84 1015.88 1015.96 1016.08 1016.12 1016.16 1016.16 1016.16 1016.12 1016.04 1016.00 1016.12 1016.24 1016.24 1016.16 1016.20 1016.28 1016.36 1016.28 1016.24 1016.28 1016.40 1016.56 1016.60
1017.48 1017.40 1017.36 1017.28 1017.24 1017.16 1017.04 1016.88 1016.72 1016.64 1016.56 1016.48 1016.40 1016.36 1016.36 1016.32 1016.24 1016.20 1016.12 1016.04 1016.04 1016.04 1015.96 1015.84 1015.72 1015.64 1015.60 1015.60 1015.60 1015.60 1015.60 1015.56 1015.64 1015.68 1015.64 1015.52 1015.48 1015.44 1015.40 1015.40 1015.48 1015.44 1015.40 1015.40 1015.48 1015.48 1015.48 1015.56 1015.68 1015.76 1015.76 1015.72 1015.72 1015.72 1015.68 1015.64 1015.72 1015.84 1015.80 1015.76 1015.84 1015.92 1015.92 1015.84 1015.84 1015.92 1016.04 1016.12 1016.12
1017.40 1017.28 1017.20 1017.08 1017.00 1016.92 1016.84 1016.68 1016.64 1016.52 1016.40 1016.28 1016.28 1016.24 1016.20 1016.12 1016.04 1016.00 1016.00 1015.96 1015.84 1015.72 1015.60 1015.52 1015.52 1015.44 1015.40 1015.40 1015.40 1015.40 1015.40 1015.36 1015.36 1015.40 1015.36 1015.28 1015.24 1015.16 1015.12 1015.16 1015.16 1015.12 1015.12 1015.12 1015.12 1015.12 1015.20 1015.32 1015.40 1015.44 1015.40 1015.36 1015.32 1015.28 1015.24 1015.24 1015.36 1015.40 1015.40 1015.36 1015.40 1015.48 1015.48 1015.40 1015.44 1015.52 1015.60 1015.64 1015.68
1017.24 1017.12 1017.00 1016.96 1016.84 1016.76 1016.68 1016.56 1016.48 1016.40 1016.28 1016.24 1016.24 1016.20 1016.08 1015.96 1015.92 1015.92 1015.88 1015.80 1015.60 1015.44 1015.36 1015.40 1015.36 1015.28 1015.24 1015.24 1015.24 1015.20 1015.16 1015.16 1015.12 1015.12 1015.12 1015.04 1014.92 1014.88 1014.84 1014.84 1014.84 1014.84 1014.80 1014.80 1014.80 1014.84 1014.92 1015.12 1015.16 1015.12 1015.04 1015.04 1014.96 1014.84 1014.80 1014.96 1015.04 1015.08 1015.04 1015.04 1015.00 1015.00 1015.08 1015.08 1015.04 1015.12 1015.20 1015.24 1015.24
1017.12 1016.96 1016.88 1016.80 1016.72 1016.68 1016.60 1016.52 1016.40 1016.36 1016.28 1016.28 1016.24 1016.12 1016.00 1015.84 1015.80 1015.76 1015.68 1015.56 1015.44 1015.36 1015.28 1015.20 1015.20 1015.12 1015.08 1015.08 1015.08 1015.00 1014.96 1014.88 1014.84 1014.84 1014.84 1014.80 1014.68 1014.64 1014.60 1014.56 1014.52 1014.52 1014.48 1014.44 1014.52 1014.56 1014.64 1014.76 1014.84 1014.84 1014.68 1014.64 1014.56 1014.44 1014.40 1014.56 1014.64 1014.68 1014.68 1014.60 1014.52 1014.56 1014.68 1014.64 1014.64 1014.68 1014.80 1014.84 1014.84
1017.00 1016.84 1016.72 1016.64 1016.60 1016.56 1016.56 1016.44 1016.40 1016.40 1016.32 1016.28 1016.16 1016.00 1015.88 1015.76 1015.68 1015.64 1015.56 1015.52 1015.40 1015.32 1015.20 1015.08 1015.04 1015.00 1014.96 1014.92 1014.88 1014.84 1014.76 1014.68 1014.64 1014.56 1014.56 1014.52 1014.44 1014.40 1014.32 1014.28 1014.24 1014.24 1014.16 1014.16 1014.24 1014.28 1014.36 1014.44 1014.52 1014.48 1014.40 1014.28 1014.16 1014.08 1014.04 1014.12 1014.24 1014.28 1014.24 1014.16 1014.12 1014.12 1014.20 1014.24 1014.24 1014.32 1014.36 1014.40 1014.44
1016.88 1016.68 1016.56 1016.52 1016.48 1016.44 1016.40 1016.36 1016.36 1016.36 1016.32 1016.20 1016.08 1015.92 1015.76 1015.68 1015.64 1015.56 1015.48 1015.40 1015.24 1015.12 1015.04 1014.96 1014.88 1014.84 1014.84 1014.84 1014.76 1014.68 1014.56 1014.48 1014.40 1014.32 1014.24 1014.24 1014.20 1014.12 1014.08 1014.04 1014.00 1013.96 1013.88 1013.84 1013.92 1013.96 1014.08 1014.16 1014.16 1014.08 1013.96 1013.88 1013.76 1013.64 1013.60 1013.72 1013.84 1013.88 1013.84 1013.76 1013.72 1013.72 1013.76 1013.84 1013.88 1013.96 1013.96 1014.00 1014.08
1016.68 1016.56 1016.40 1016.40 1016.32 1016.28 1016.24 1016.24 1016.24 1016.24 1016.24 1016.12 1015.96 1015.80 1015.68 1015.56 1015.44 1015.40 1015.28 1015.16 1015.04 1014.96 1014.92 1014.80 1014.72 1014.68 1014.72 1014.68 1014.60 1014.48 1014.36 1014.24 1014.20 1014.12 1014.04 1013.96 1013.96 1013.92 1013.84 1013.76 1013.72 1013.68 1013.60 1013.56 1013.60 1013.68 1013.80 1013.84 1013.80 1013.68 1013.52 1013.44 1013.40 1013.32 1013.28 1013.40 1013.48 1013.48 1013.44 1013.40 1013.40 1013.40 1013.40 1013.40 1013.48 1013.56 1013.60 1013.60 1013.64
1016.52 1016.40 1016.32 1016.24 1016.20 1016.12 1016.12 1016.16 1016.12 1016.08 1016.00 1015.92 1015.72 1015.56 1015.48 1015.36 1015.24 1015.16 1015.08 1015.00 1015.00 1014.92 1014.72 1014.56 1014.56 1014.56 1014.56 1014.44 1014.32 1014.20 1014.12 1014.04 1013.96 1013.88 1013.84 1013.76 1013.68 1013.60 1013.52 1013.52 1013.40 1013.40 1013.32 1013.24 1013.28 1013.36 1013.40 1013.44 1013.40 1013.28 1013.16 1013.08 1013.04 1013.00 1013.00 1013.04 1013.12 1013.12 1013.04 1012.96 1013.00 1013.04 1013.04 1013.00 1013.08 1013.16 1013.24 1013.24 1013.24
1016.44 1016.32 1016.24 1016.16 1016.12 1016.12 1016.12 1016.00 1015.92 1015.84 1015.72 1015.60 1015.44 1015.32 1015.20 1015.12 1015.00 1014.96 1014.92 1014.92 1014.88 1014.72 1014.52 1014.40 1014.40 1014.40 1014.36 1014.24 1014.08 1013.96 1013.84 1013.84 1013.76 1013.68 1013.60 1013.52 1013.40 1013.32 1013.24 1013.24 1013.16 1013.12 1013.04 1012.96 1013.04 1013.12 1013.12 1013.12 1013.04 1012.96 1012.84 1012.72 1012.72 1012.68 1012.68 1012.68 1012.72 1012.72 1012.68 1012.60 1012.64 1012.68 1012.68 1012.68 1012.72 1012.80 1012.84 1012.88 1012.92
1016.56 1016.40 1016.24 1016.12 1016.08 1016.04 1015.96 1015.84 1015.68 1015.52 1015.40 1015.32 1015.20 1015.12 1015.00 1014.88 1014.84 1014.80 1014.84 1014.80 1014.68 1014.56 1014.36 1014.24 1014.20 1014.20 1014.12 1013.96 1013.84 1013.72 1013.64 1013.52 1013.52 1013.44 1013.36 1013.24 1013.12 1013.04 1012.96 1012.96 1012.88 1012.84 1012.76 1012.68 1012.72 1012.80 1012.80 1012.72 1012.68 1012.60 1012.48 1012.40 1012.32 1012.24 1012.24 1012.24 1012.28 1012.32 1012.28 1012.24 1012.28 1012.32 1012.28 1012.24 1012.32 1012.40 1012.48 1012.56 1012.56
1016.76 1016.56 1016.36 1016.20 1016.08 1015.96 1015.84 1015.68 1015.48 1015.32 1015.24 1015.12 1014.96 1014.88 1014.80 1014.68 1014.64 1014.64 1014.64 1014.60 1014.48 1014.36 1014.20 1014.04 1013.96 1013.88 1013.80 1013.68 1013.60 1013.52 1013.40 1013.28 1013.24 1013.16 1013.08 1012.96 1012.84 1012.76 1012.68 1012.60 1012.56 1012.52 1012.44 1012.40 1012.40 1012.44 1012.40 1012.36 1012.28 1012.24 1012.16 1012.04 1011.92 1011.84 1011.84 1011.84 1011.88 1011.84 1011.84 1011.84 1011.88 1011.84 1011.84 1011.84 1011.92 1012.04 1012.16 1012.16 1012.12
1016.80 1016.60 1016.44 1016.28 1016.16 1016.00 1015.84 1015.60 1015.36 1015.20 1015.08 1014.96 1014.76 1014.64 1014.56 1014.48 1014.40 1014.40 1014.40 1014.36 1014.24 1014.12 1014.00 1013.92 1013.72 1013.52 1013.40 1013.40 1013.32 1013.24 1013.16 1013.12 1013.00 1012.92 1012.84 1012.68 1012.56 1012.48 1012.40 1012.28 1012.24 1012.16 1012.12 1012.08 1012.04 1012.04 1012.04 1011.96 1011.92 1011.84 1011.76 1011.68 1011.52 1011.44 1011.40 1011.44 1011.44 1011.40 1011.40 1011.40 1011.36 1011.36 1011.36 1011.40 1011.52 1011.68 1011.72 1011.72 1011.76
1016.68 1016.56 1016.44 1016.40 1016.20 1016.00 1015.80 1015.56 1015.32 1015.12 1015.00 1014.84 1014.56 1014.44 1014.40 1014.28 1014.20 1014.12 1014.12 1014.08 1013.96 1013.84 1013.76 1013.68 1013.48 1013.28 1013.12 1013.04 1013.00 1012.96 1012.92 1012.84 1012.80 1012.68 1012.60 1012.44 1012.28 1012.20 1012.12 1012.00 1011.92 1011.84 1011.76 1011.72 1011.68 1011.64 1011.60 1011.56 1011.52 1011.44 1011.36 1011.24 1011.16 1011.08 1011.04 1011.04 1011.00 1010.96 1010.96 1010.88 1010.88 1010.88 1010.92 1010.96 1011.12 1011.20 1011.24 1011.28 1011.32
1016.56 1016.40 1016.28 1016.20 1016.08 1015.92 1015.72 1015.52 1015.36 1015.20 1015.00 1014.84 1014.56 1014.40 1014.32 1014.20 1014.08 1014.00 1013.92 1013.80 1013.68 1013.56 1013.44 1013.32 1013.20 1013.04 1012.88 1012.72 1012.68 1012.68 1012.68 1012.56 1012.44 1012.40 1012.28 1012.16 1012.00 1011.88 1011.80 1011.68 1011.56 1011.48 1011.40 1011.40 1011.36 1011.28 1011.20 1011.12 1011.08 1011.04 1011.00 1010.88 1010.80 1010.72 1010.64 1010.60 1010.60 1010.56 1010.52 1010.44 1010.40 1010.44 1010.44 1010.48 1010.60 1010.68 1010.80 1010.84 1010.84
1016.40 1016.20 1016.08 1015.96 1015.88 1015.76 1015.60 1015.44 1015.32 1015.16 1015.00 1014.84 1014.64 1014.44 1014.28 1014.12 1014.00 1013.84 1013.68 1013.52 1013.52 1013.40 1013.24 1013.08 1012.96 1012.84 1012.72 1012.56 1012.40 1012.36 1012.32 1012.24 1012.12 1012.00 1011.88 1011.76 1011.68 1011.56 1011.44 1011.32 1011.20 1011.12 1011.04 1011.00 1010.96 1010.88 1010.80 1010.68 1010.68 1010.68 1010.60 1010.56 1010.44 1010.36 1010.24 1010.24 1010.20 1010.12 1010.08 1010.04 1010.00 1010.04 1010.08 1010.08 1010.16 1010.24 1010.32 1010.36 1010.36
1016.24 1016.08 1015.92 1015.80 1015.68 1015.52 1015.40 1015.24 1015.12 1014.96 1014.84 1014.68 1014.56 1014.40 1014.20 1014.00 1013.88 1013.72 1013.56 1013.40 1013.28 1013.20 1013.08 1012.88 1012.68 1012.56 1012.40 1012.28 1012.16 1012.04 1011.96 1011.92 1011.80 1011.68 1011.52 1011.40 1011.32 1011.24 1011.12 1010.96 1010.84 1010.76 1010.68 1010.64 1010.56 1010.44 1010.40 1010.32 1010.24 1010.24 1010.20 1010.12 1010.04 1009.96 1009.88 1009.84 1009.76 1009.68 1009.68 1009.68 1009.68 1009.64 1009.68 1009.68 1009.76 1009.80 1009.84 1009.92 1009.92
1016.12 1015.96 1015.80 1015.60 1015.44 1015.32 1015.20 1015.04 1014.92 1014.76 1014.60 1014.48 1014.36 1014.20 1014.00 1013.84 1013.68 1013.60 1013.40 1013.20 1013.00 1012.88 1012.84 1012.68 1012.48 1012.28 1012.12 1011.96 1011.84 1011.72 1011.64 1011.60 1011.52 1011.36 1011.20 1011.08 1011.00 1010.88 1010.72 1010.60 1010.48 1010.40 1010.32 1010.24 1010.16 1010.12 1010.00 1009.96 1009.88 1009.84 1009.80 1009.72 1009.64 1009.52 1009.48 1009.40 1009.40 1009.32 1009.28 1009.24 1009.28 1009.24 1009.24 1009.28 1009.36 1009.40 1009.44 1009.48 1009.52
1015.96 1015.76 1015.56 1015.40 1015.28 1015.16 1015.00 1014.84 1014.72 1014.56 1014.44 1014.28 1014.16 1014.00 1013.84 1013.64 1013.48 1013.32 1013.12 1012.88 1012.68 1012.60 1012.52 1012.36 1012.20 1012.00 1011.84 1011.68 1011.56 1011.40 1011.28 1011.24 1011.20 1011.04 1010.84 1010.68 1010.60 1010.44 1010.32 1010.24 1010.16 1010.04 1009.96 1009.92 1009.84 1009.72 1009.68 1009.56 1009.52 1009.44 1009.40 1009.32 1009.24 1009.16 1009.08 1009.04 1008.96 1008.96 1008.92 1008.88 1008.84 1008.84 1008.84 1008.92 1008.96 1009.00 1009.04 1009.08 1009.12
1015.80 1015.56 1015.40 1015.24 1015.12 1015.00 1014.84 1014.68 1014.56 1014.44 1014.28 1014.12 1013.96 1013.72 1013.56 1013.40 1013.20 1012.96 1012.76 1012.56 1012.40 1012.28 1012.16 1012.04 1011.84 1011.72 1011.56 1011.44 1011.28 1011.12 1010.96 1010.84 1010.76 1010.68 1010.56 1010.40 1010.24 1010.08 1009.96 1009.92 1009.84 1009.76 1009.68 1009.56 1009.44 1009.36 1009.28 1009.20 1009.12 1009.08 1009.00 1008.96 1008.84 1008.76 1008.68 1008.64 1008.60 1008.56 1008.48 1008.48 1008.44 1008.44 1008.44 1008.52 1008.56 1008.56 1008.60 1008.68 1008.68
1015.60 1015.40 1015.24 1015.12 1015.00 1014.84 1014.68 1014.56 1014.40 1014.24 1014.12 1013.88 1013.68 1013.48 1013.28 1013.12 1012.88 1012.64 1012.44 1012.28 1012.12 1012.00 1011.84 1011.68 1011.56 1011.40 1011.24 1011.12 1011.00 1010.88 1010.72 1010.56 1010.40 1010.24 1010.16 1010.08 1009.96 1009.84 1009.68 1009.68 1009.60 1009.48 1009.36 1009.20 1009.12 1009.04 1008.96 1008.84 1008.76 1008.68 1008.60 1008.56 1008.48 1008.36 1008.28 1008.24 1008.20 1008.12 1008.08 1008.04 1008.00 1008.00 1008.04 1008.08 1008.12 1008.12 1008.16 1008.20 1008.24
1015.44 1015.28 1015.16 1014.96 1014.88 1014.72 1014.56 1014.40 1014.24 1014.08 1013.88 1013.68 1013.44 1013.24 1013.04 1012.84 1012.60 1012.40 1012.20 1012.04 1011.88 1011.72 1011.56 1011.40 1011.24 1011.12 1010.96 1010.84 1010.72 1010.68 1010.56 1010.36 1010.16 1009.96 1009.84 1009.72 1009.64 1009.52 1009.40 1009.32 1009.24 1009.12 1008.96 1008.84 1008.72 1008.68 1008.60 1008.56 1008.40 1008.28 1008.20 1008.16 1008.08 1007.96 1007.84 1007.84 1007.80 1007.72 1007.68 1007.64 1007.56 1007.56 1007.56 1007.64 1007.68 1007.72 1007.80 1007.84 1007.84
1015.36 1015.20 1015.08 1014.92 1014.76 1014.60 1014.40 1014.24 1014.12 1013.92 1013.68 1013.40 1013.20 1013.00 1012.84 1012.60 1012.40 1012.20 1012.00 1011.84 1011.64 1011.48 1011.32 1011.16 1011.00 1010.84 1010.68 1010.56 1010.44 1010.32 1010.24 1010.12 1009.92 1009.72 1009.52 1009.40 1009.24 1009.12 1009.08 1008.96 1008.84 1008.68 1008.56 1008.44 1008.24 1008.12 1008.00 1007.96 1007.88 1007.80 1007.68 1007.64 1007.56 1007.48 1007.40 1007.36 1007.28 1007.24 1007.24 1007.20 1007.16 1007.16 1007.16 1007.16 1007.24 1007.28 1007.36 1007.40 1007.44
1015.24 1015.12 1014.96 1014.76 1014.60 1014.40 1014.24 1014.08 1013.84 1013.64 1013.40 1013.20 1012.96 1012.80 1012.56 1012.40 1012.20 1012.00 1011.84 1011.60 1011.40 1011.24 1011.12 1010.96 1010.80 1010.60 1010.44 1010.28 1010.12 1009.96 1009.84 1009.68 1009.56 1009.40 1009.24 1009.08 1008.88 1008.80 1008.68 1008.56 1008.40 1008.28 1008.20 1008.04 1007.84 1007.68 1007.52 1007.40 1007.28 1007.20 1007.12 1007.04 1006.96 1006.92 1006.84 1006.72 1006.68 1006.72 1006.72 1006.68 1006.68 1006.72 1006.76 1006.76 1006.76 1006.84 1006.88 1006.96 1006.96
1015.16 1014.96 1014.80 1014.56 1014.44 1014.24 1014.04 1013.80 1013.60 1013.40 1013.16 1012.96 1012.76 1012.56 1012.36 1012.12 1011.96 1011.80 1011.60 1011.40 1011.24 1011.04 1010.88 1010.72 1010.56 1010.36 1010.16 1009.96 1009.80 1009.64 1009.48 1009.32 1009.16 1009.04 1008.92 1008.80 1008.64 1008.48 1008.28 1008.12 1007.96 1007.88 1007.76 1007.60 1007.40 1007.24 1007.12 1006.96 1006.84 1006.68 1006.56 1006.48 1006.40 1006.24 1006.20 1006.12 1006.12 1006.12 1006.16 1006.16 1006.20 1006.24 1006.28 1006.28 1006.32 1006.36 1006.40 1006.48 1006.52
1015.04 1014.84 1014.68 1014.44 1014.24 1014.04 1013.80 1013.56 1013.40 1013.16 1012.96 1012.80 1012.56 1012.36 1012.12 1011.92 1011.76 1011.60 1011.40 1011.24 1011.00 1010.84 1010.68 1010.44 1010.24 1010.08 1009.88 1009.68 1009.48 1009.32 1009.12 1008.96 1008.84 1008.68 1008.56 1008.40 1008.28 1008.12 1007.92 1007.72 1007.56 1007.44 1007.32 1007.16 1007.00 1006.84 1006.68 1006.52 1006.32 1006.16 1006.00 1005.96 1005.84 1005.72 1005.64 1005.56 1005.52 1005.52 1005.56 1005.64 1005.64 1005.68 1005.72 1005.80 1005.84 1005.88 1005.96 1006.00 1006.08
1014.88 1014.68 1014.56 1014.32 1014.08 1013.84 1013.56 1013.40 1013.20 1012.96 1012.72 1012.56 1012.32 1012.12 1011.92 1011.72 1011.56 1011.40 1011.20 1011.00 1010.84 1010.64 1010.44 1010.20 1009.96 1009.76 1009.60 1009.40 1009.16 1008.96 1008.84 1008.68 1008.56 1008.40 1008.24 1008.12 1007.96 1007.76 1007.56 1007.40 1007.20 1007.00 1006.84 1006.72 1006.56 1006.44 1006.28 1006.12 1005.92 1005.72 1005.56 1005.48 1005.40 1005.24 1005.12 1005.04 1004.96 1004.92 1004.92 1004.96 1005.04 1005.12 1005.16 1005.24 1005.28 1005.36 1005.44 1005.52 1005.60
1014.76 1014.56 1014.36 1014.12 1013.92 1013.68 1013.40 1013.20 1013.00 1012.80 1012.56 1012.28 1012.12 1011.96 1011.72 1011.52 1011.32 1011.12 1010.96 1010.76 1010.56 1010.40 1010.20 1009.96 1009.76 1009.52 1009.32 1009.12 1008.96 1008.72 1008.56 1008.36 1008.20 1008.08 1007.96 1007.80 1007.64 1007.40 1007.16 1006.96 1006.84 1006.68 1006.56 1006.40 1006.24 1006.08 1005.92 1005.72 1005.52 1005.36 1005.20 1005.04 1004.96 1004.84 1004.72 1004.60 1004.52 1004.44 1004.40 1004.36 1004.40 1004.52 1004.60 1004.68 1004.76 1004.84 1004.96 1005.00 1005.12
1014.56 1014.40 1014.24 1013.96 1013.76 1013.52 1013.24 1012.96 1012.76 1012.56 1012.36 1012.12 1011.96 1011.76 1011.52 1011.32 1011.12 1010.96 1010.72 1010.56 1010.32 1010.08 1009.84 1009.68 1009.56 1009.32 1009.08 1008.88 1008.72 1008.56 1008.32 1008.12 1007.96 1007.84 1007.68 1007.52 1007.28 1007.04 1006.84 1006.64 1006.48 1006.36 1006.24 1006.12 1005.96 1005.76 1005.56 1005.40 1005.16 1004.96 1004.80 1004.64 1004.56 1004.44 1004.32 1004.20 1004.12 1004.00 1003.92 1003.88 1003.84 1003.92 1004.04 1004.12 1004.24 1004.40 1004.48 1004.56 1004.68
1014.40 1014.24 1014.04 1013.84 1013.56 1013.28 1013.00 1012.80 1012.56 1012.36 1012.12 1011.92 1011.72 1011.52 1011.32 1011.12 1010.92 1010.68 1010.52 1010.32 1010.12 1009.84 1009.64 1009.48 1009.32 1009.08 1008.80 1008.60 1008.40 1008.24 1008.08 1007.88 1007.68 1007.52 1007.36 1007.16 1006.96 1006.72 1006.52 1006.28 1006.16 1006.04 1005.92 1005.76 1005.60 1005.40 1005.20 1004.96 1004.80 1004.56 1004.40 1004.24 1004.12 1004.00 1003.92 1003.84 1003.68 1003.60 1003.52 1003.40 1003.40 1003.44 1003.52 1003.64 1003.76 1003.88 1003.96 1004.12 1004.20
1014.24 1014.04 1013.88 1013.68 1013.40 1013.12 1012.84 1012.60 1012.40 1012.16 1011.92 1011.72 1011.52 1011.32 1011.12 1010.88 1010.68 1010.48 1010.28 1010.12 1009.96 1009.72 1009.52 1009.28 1009.08 1008.84 1008.60 1008.40 1008.16 1007.96 1007.72 1007.56 1007.36 1007.12 1006.96 1006.84 1006.64 1006.40 1006.20 1005.96 1005.84 1005.68 1005.52 1005.40 1005.24 1005.04 1004.84 1004.60 1004.40 1004.24 1004.04 1003.84 1003.72 1003.64 1003.52 1003.40 1003.32 1003.20 1003.12 1003.04 1003.00 1003.00 1003.08 1003.16 1003.24 1003.36 1003.48 1003.60 1003.68
1014.04 1013.88 1013.68 1013.44 1013.20 1012.92 1012.64 1012.40 1012.16 1011.96 1011.72 1011.52 1011.28 1011.12 1010.96 1010.76 1010.52 1010.28 1010.08 1009.88 1009.68 1009.52 1009.24 1009.04 1008.84 1008.60 1008.40 1008.20 1007.96 1007.72 1007.48 1007.24 1007.04 1006.84 1006.68 1006.52 1006.32 1006.12 1005.96 1005.72 1005.52 1005.36 1005.20 1005.08 1004.84 1004.64 1004.44 1004.24 1004.08 1003.88 1003.68 1003.52 1003.40 1003.28 1003.20 1003.12 1002.96 1002.84 1002.76 1002.68 1002.64 1002.64 1002.68 1002.72 1002.76 1002.84 1002.96 1003.12 1003.16
1013.88 1013.68 1013.48 1013.24 1013.00 1012.72 1012.48 1012.20 1011.96 1011.76 1011.56 1011.40 1011.12 1010.88 1010.72 1010.56 1010.40 1010.16 1009.92 1009.68 1009.44 1009.24 1008.96 1008.72 1008.56 1008.36 1008.12 1007.92 1007.72 1007.52 1007.24 1006.96 1006.80 1006.56 1006.36 1006.20 1006.00 1005.84 1005.56 1005.36 1005.16 1005.00 1004.88 1004.72 1004.56 1004.32 1004.12 1003.92 1003.76 1003.56 1003.40 1003.24 1003.12 1003.04 1002.96 1002.80 1002.68 1002.56 1002.40 1002.36 1002.28 1002.24 1002.24 1002.28 1002.36 1002.40 1002.52 1002.60 1002.72
1013.76 1013.56 1013.32 1013.04 1012.84 1012.56 1012.32 1012.04 1011.84 1011.60 1011.40 1011.24 1010.96 1010.72 1010.52 1010.32 1010.12 1009.96 1009.72 1009.48 1009.24 1008.96 1008.68 1008.44 1008.24 1008.08 1007.88 1007.64 1007.40 1007.24 1007.00 1006.76 1006.52 1006.24 1006.04 1005.88 1005.68 1005.48 1005.24 1004.96 1004.80 1004.64 1004.56 1004.40 1004.24 1004.00 1003.84 1003.64 1003.44 1003.24 1003.12 1002.96 1002.88 1002.80 1002.68 1002.52 1002.36 1002.24 1002.12 1002.00 1001.92 1001.88 1001.84 1001.88 1001.96 1001.96 1002.08 1002.20 1002.28
1013.60 1013.40 1013.16 1012.92 1012.68 1012.40 1012.20 1011.96 1011.72 1011.52 1011.28 1011.04 1010.84 1010.60 1010.40 1010.12 1009.88 1009.68 1009.48 1009.24 1009.04 1008.76 1008.44 1008.20 1007.96 1007.80 1007.60 1007.40 1007.12 1006.88 1006.68 1006.44 1006.24 1005.96 1005.68 1005.52 1005.36 1005.16 1004.92 1004.64 1004.44 1004.32 1004.20 1004.08 1003.92 1003.72 1003.52 1003.36 1003.16 1002.96 1002.84 1002.72 1002.60 1002.48 1002.36 1002.24 1002.08 1001.92 1001.80 1001.68 1001.60 1001.52 1001.52 1001.52 1001.52 1001.56 1001.68 1001.76 1001.84
1013.40 1013.24 1013.04 1012.80 1012.56 1012.28 1012.08 1011.84 1011.64 1011.40 1011.12 1010.84 1010.64 1010.40 1010.20 1009.96 1009.68 1009.40 1009.20 1009.04 1008.84 1008.56 1008.20 1007.92 1007.72 1007.52 1007.32 1007.12 1006.84 1006.56 1006.28 1006.08 1005.92 1005.68 1005.40 1005.20 1005.00 1004.84 1004.64 1004.36 1004.12 1003.96 1003.88 1003.76 1003.60 1003.44 1003.24 1003.08 1002.84 1002.72 1002.64 1002.52 1002.40 1002.24 1002.08 1001.96 1001.80 1001.68 1001.52 1001.44 1001.32 1001.24 1001.24 1001.24 1001.20 1001.24 1001.24 1001.36 1001.40
1013.24 1013.12 1012.92 1012.72 1012.48 1012.20 1011.96 1011.72 1011.52 1011.24 1010.96 1010.68 1010.44 1010.20 1009.96 1009.72 1009.48 1009.24 1008.96 1008.80 1008.60 1008.36 1008.04 1007.76 1007.48 1007.24 1007.04 1006.84 1006.56 1006.24 1005.92 1005.68 1005.52 1005.36 1005.16 1004.92 1004.72 1004.56 1004.36 1004.12 1003.84 1003.68 1003.52 1003.44 1003.32 1003.16 1003.00 1002.84 1002.64 1002.48 1002.36 1002.28 1002.16 1002.00 1001.88 1001.72 1001.56 1001.40 1001.32 1001.20 1001.12 1001.00 1000.96 1000.96 1000.96 1000.92 1000.92 1000.96 1000.96
1013.12 1012.96 1012.80 1012.60 1012.36 1012.12 1011.84 1011.52 1011.28 1011.08 1010.84 1010.56 1010.28 1010.00 1009.76 1009.52 1009.24 1008.96 1008.72 1008.52 1008.32 1008.12 1007.88 1007.56 1007.28 1007.00 1006.80 1006.56 1006.24 1005.92 1005.56 1005.32 1005.16 1005.04 1004.88 1004.68 1004.44 1004.24 1004.08 1003.84 1003.60 1003.40 1003.24 1003.16 1003.04 1002.92 1002.72 1002.56 1002.40 1002.24 1002.12 1002.04 1001.96 1001.84 1001.68 1001.52 1001.40 1001.24 1001.08 1000.96 1000.92 1000.84 1000.72 1000.68 1000.68 1000.68 1000.68 1000.68 1000.68
1012.96 1012.80 1012.60 1012.40 1012.20 1011.96 1011.68 1011.40 1011.08 1010.84 1010.60 1010.40 1010.12 1009.84 1009.56 1009.28 1008.96 1008.72 1008.52 1008.32 1008.12 1007.92 1007.64 1007.36 1007.04 1006.72 1006.48 1006.24 1005.96 1005.64 1005.32 1005.00 1004.84 1004.68 1004.56 1004.40 1004.20 1004.00 1003.84 1003.68 1003.40 1003.20 1003.00 1002.88 1002.80 1002.64 1002.44 1002.28 1002.12 1002.00 1001.88 1001.84 1001.72 1001.64 1001.52 1001.36 1001.16 1001.00 1000.84 1000.72 1000.68 1000.64 1000.56 1000.44 1000.40 1000.40 1000.40 1000.40 1000.48
Wind_Speed
8 8 7 7 6 6 6 6 7 7 7 6 6 6 6 5 6 6 6 6 6 6 6 6 6 6 6 7 8 8 9 9 10 11 12 13 13 13 13 13 13 13 13 13 13 12 11 11 10 9 8 8 9 9 9 9 11 12 12 13 13 13 14 15 15 16 17 17 14
9 9 8 8 8 7 6 6 6 7 7 6 6 6 6 6 6 6 6 6 6 6 6 6 6 6 7 8 8 8 9 9 10 11 11 12 13 13 13 12 13 13 13 13 13 12 11 11 10 9 8 8 9 10 10 10 11 12 13 15 13 12 12 13 15 16 16 16 15
8 8 7 7 7 7 6 6 7 7 7 7 6 6 6 6 6 6 7 6 6 6 6 6 6 7 7 8 8 8 8 9 9 10 10 11 12 12 13 12 12 13 13 13 13 12 11 11 10 9 9 8 9 10 11 11 11 12 13 15 12 11 10 11 13 13 13 12 14
7 7 7 7 8 9 8 7 7 8 7 7 6 6 6 5 5 6 6 6 6 6 6 7 7 7 7 8 8 8 8 9 9 10 10 11 12 12 12 12 13 13 13 13 13 13 13 12 10 9 9 10 11 11 11 10 11 11 11 12 10 10 11 11 11 11 10 11 12
6 6 7 7 9 9 8 7 7 8 7 5 5 5 5 5 5 5 5 5 6 7 7 7 7 7 7 7 8 9 9 9 10 10 10 11 12 12 12 12 13 13 13 13 13 13 13 12 10 9 9 10 10 10 10 11 11 11 10 9 9 10 10 11 10 10 9 10 10
5 5 6 6 7 7 7 6 7 7 6 5 5 5 5 5 5 5 6 6 7 8 8 8 7 8 8 8 8 9 9 9 9 9 10 11 11 11 12 12 13 13 12 13 13 13 13 12 9 9 9 9 10 11 12 12 12 11 11 10 10 9 10 11 10 9 9 10 11
5 5 5 5 6 6 6 5 6 5 5 4 5 6 7 7 6 6 7 7 6 6 6 6 7 7 8 8 8 8 8 8 9 9 10 10 11 11 12 12 12 13 13 13 13 12 11 10 9 9 9 10 10 11 12 12 12 12 12 12 11 9 10 11 9 9 11 13 14
5 5 5 5 5 5 5 5 4 4 4 4 6 7 8 8 7 7 7 6 6 6 5 5 6 7 8 7 8 8 9 9 9 9 9 10 11 11 12 12 12 13 13 13 12 12 11 9 9 9 10 9 9 10 12 13 13 13 14 14 12 10 9 9 9 10 11 14 15
5 5 5 5 5 5 5 5 4 4 4 6 7 8 8 7 7 7 6 5 6 5 5 5 7 7 8 8 8 9 9 9 9 10 10 10 10 11 12 11 12 12 13 12 12 12 11 9 9 9 10 9 10 11 11 12 13 15 15 15 13 12 11 11 11 11 13 14 15
5 5 4 4 4 4 4 4 4 5 6 7 8 8 7 7 7 6 5 5 5 5 5 6 6 7 7 8 9 9 9 9 9 9 10 10 11 11 12 11 12 12 12 11 11 11 10 9 10 11 11 11 12 13 13 12 14 15 15 13 13 14 14 13 13 13 14 14 15
6 5 4 4 4 4 3 3 4 5 6 7 7 7 7 7 6 6 5 4 4 6 7 7 7 7 8 8 9 9 9 9 9 9 10 10 11 11 12 11 12 12 12 12 10 9 9 9 11 12 13 13 13 13 13 13 14 15 15 14 14 15 15 15 14 14 14 14 16
7 6 5 4 4 3 3 3 4 4 5 6 7 6 6 6 6 5 5 4 5 7 7 7 7 8 8 9 9 9 9 9 9 9 10 10 11 11 12 12 12 12 13 13 11 9 9 10 11 13 15 15 13 12 13 14 15 16 16 16 16 16 16 16 15 14 13 14 15
6 6 5 4 4 3 3 4 4 4 5 6 6 7 6 7 6 5 5 5 7 8 8 7 7 8 8 9 9 9 9 9 9 9 10 10 11 11 11 11 12 12 13 12 11 10 10 11 12 14 15 15 14 13 14 15 15 16 17 17 17 17 17 17 16 15 14 14 15
7 7 6 5 4 3 3 4 4 4 5 6 7 7 7 7 6 6 5 6 8 8 8 8 7 8 8 9 10 10 10 10 10 10 10 11 11 11 11 11 11 12 12 11 11 11 11 12 13 14 15 16 16 15 15 15 15 16 17 17 18 18 18 17 16 16 15 16 17
8 8 7 5 4 4 4 5 5 5 6 7 7 7 7 7 7 6 6 7 8 8 8 7 8 8 9 9 10 10 10 10 10 11 11 12 11 11 11 11 11 12 11 11 11 11 12 14 14 15 15 16 17 16 16 16 16 16 16 17 18 18 18 17 17 16 16 17 17
9 9 7 5 5 5 6 7 6 6 6 7 7 7 7 7 6 6 7 7 8 7 7 8 9 9 9 9 10 10 10 10 10 11 11 12 12 12 12 12 12 12 12 12 12 12 13 13 14 15 15 16 17 17 16 16 16 16 17 17 18 18 18 18 17 17 17 17 18
10 9 8 6 7 8 8 8 7 7 7 8 8 8 7 7 6 6 7 8 7 8 8 9 9 9 9 10 9 9 9 10 10 10 11 12 12 12 12 12 12 12 12 12 12 13 13 13 13 14 15 16 16 16 16 16 16 16 17 17 17 17 18 17 17 17 17 17 18
10 10 9 9 10 10 10 10 9 9 9 10 9 9 8 8 7 8 8 8 8 9 10 11 10 10 10 11 10 9 8 10 11 11 11 12 12 12 12 12 12 12 12 12 12 13 14 14 14 14 14 15 15 15 16 16 16 16 16 17 17 17 17 17 17 16 16 17 18
10 10 10 11 11 11 11 11 11 11 11 10 10 9 9 9 9 9 10 10 10 10 11 12 11 11 11 12 12 10 9 10 11 12 12 12 12 12 13 13 13 12 12 12 13 13 14 14 14 14 14 14 15 15 15 15 15 15 16 16 16 16 16 16 16 16 16 17 18
10 10 11 11 11 11 11 11 11 11 11 10 10 11 11 11 10 11 11 12 12 11 11 12 12 12 13 13 12 11 10 9 11 12 13 12 13 13 13 13 13 13 12 12 12 13 13 14 14 14 14 15 15 15 15 15 15 15 15 15 15 16 16 16 16 16 16 17 17
10 10 11 11 11 11 11 11 11 10 10 11 11 12 12 12 12 12 12 13 13 12 12 12 13 13 13 13 13 13 12 10 11 12 13 13 13 13 13 13 13 12 12 11 12 13 13 14 14 14 14 14 15 15 15 14 14 15 15 14 14 15 15 16 16 16 17 17 17
10 10 10 10 10 11 11 11 11 11 11 12 12 12 12 13 13 13 13 13 13 13 13 13 13 13 14 13 13 13 12 12 11 12 12 12 13 13 12 12 12 12 12 12 12 13 13 13 14 14 14 14 14 14 14 14 14 15 15 15 15 15 15 16 16 16 17 17 17
10 10 10 10 10 11 11 11 11 11 12 12 12 13 13 13 13 14 13 13 13 13 13 13 13 13 13 13 13 13 13 13 13 13 13 13 13 13 13 11 12 12 13 12 12 12 12 12 13 13 13 13 14 14 15 15 14 14 14 15 15 15 15 15 16 16 16 16 17
11 11 10 10 10 11 11 11 11 12 12 13 13 13 13 13 14 14 13 13 13 14 13 13 12 13 13 13 12 12 13 13 14 14 14 14 14 14 13 12 11 12 12 11 11 12 12 11 11 11 12 12 13 13 13 14 14 14 14 15 15 15 15 15 15 16 16 16 16
11 11 11 11 11 11 11 11 12 12 13 13 13 13 13 13 13 13 13 13 13 13 13 13 13 12 12 12 12 12 12 13 14 15 15 15 14 14 13 11 11 10 10 10 15 18 19 17 14 12 10 10 11 12 12 13 14 14 14 14 15 15 15 15 15 15 16 16 16
12 12 12 11 11 12 12 12 12 12 13 13 13 13 13 13 13 13 13 13 14 13 13 13 13 12 12 12 12 12 12 12 12 13 14 14 14 14 13 11 10 9 9 11 17 21 24 25 23 19 14 11 11 11 12 12 13 14 15 15 15 14 14 14 15 15 15 15 15
12 12 12 12 12 12 13 13 12 13 13 13 13 13 13 13 12 13 13 14 14 13 13 12 12 12 13 12 12 12 13 12 12 13 13 14 14 14 14 13 11 9 10 14 19 23 25 26 26 25 21 14 12 11 11 11 12 13 14 15 15 15 15 15 15 15 15 14 15
12 12 12 13 13 13 13 13 13 13 13 13 13 13 14 14 14 14 14 14 14 13 12 11 11 10 9 9 11 12 13 13 12 12 13 13 14 14 14 13 12 11 13 18 22 24 26 26 27 26 25 21 15 12 11 12 12 12 12 13 14 14 15 15 15 14 14 15 14
12 12 13 13 14 14 14 14 14 14 14 14 14 14 14 14 14 14 14 14 14 13 12 11 10 9 8 10 12 13 13 14 13 12 12 13 14 14 15 14 14 15 17 22 24 26 26 26 27 27 27 25 17 13 10 10 10 10 11 11 12 13 14 14 14 14 14 14 14
12 12 13 13 14 14 14 14 14 14 14 14 14 14 14 14 15 15 15 15 14 13 12 11 11 11 12 13 13 14 14 14 13 13 13 14 15 15 15 16 14 15 17 22 24 25 26 26 27 27 27 27 22 16 11 10 11 11 10 10 11 12 14 14 15 15 14 14 14
12 12 13 14 14 15 15 15 15 15 14 14 14 14 14 15 15 15 14 13 13 13 13 13 14 15 15 15 14 14 15 14 14 13 13 14 16 16 16 16 15 15 17 21 24 25 26 26 27 27 28 28 23 17 12 11 12 11 11 10 11 12 13 13 14 15 15 15 15
12 12 13 13 14 15 15 15 15 14 14 15 15 14 14 15 14 13 13 12 12 14 14 14 15 15 16 16 15 15 15 14 14 14 14 14 15 16 16 16 15 15 17 21 23 25 26 26 27 28 28 28 24 18 13 12 12 12 12 13 13 13 13 12 13 14 16 16 16
12 12 13 13 14 15 15 14 14 14 14 14 14 14 14 14 13 13 12 11 12 13 14 14 15 15 15 15 15 15 15 15 15 15 15 15 16 16 16 16 14 14 17 21 23 25 26 27 28 28 29 29 24 18 14 13 12 11 11 12 12 13 13 13 13 14 15 16 16
11 12 12 13 14 14 14 14 14 14 14 14 14 14 13 13 14 13 13 12 11 12 12 13 13 13 13 13 13 14 15 15 15 15 15 15 15 16 16 15 12 14 17 22 24 25 26 28 28 29 29 28 22 16 13 13 12 11 12 12 13 12 12 12 13 14 15 16 15
11 12 12 13 13 14 14 14 14 14 14 14 14 14 14 13 13 14 14 14 14 13 13 12 12 12 12 13 12 13 15 16 16 16 16 16 16 16 16 15 14 16 19 23 25 26 27 28 28 29 28 25 18 13 12 12 12 13 13 14 14 13 13 12 12 13 14 15 15
11 11 12 13 13 14 14 15 15 15 15 15 15 15 15 15 13 13 13 14 14 14 13 13 12 11 11 12 12 13 14 15 16 16 16 16 16 16 16 16 15 17 19 22 24 26 27 28 28 28 27 22 15 12 11 11 11 12 13 14 14 14 14 13 12 12 13 13 14
11 11 13 14 14 15 15 15 16 16 16 16 15 15 15 15 14 13 13 12 13 13 13 13 13 13 13 13 13 14 14 15 16 16 16 16 16 16 16 16 15 16 18 21 23 25 27 27 28 27 24 18 14 12 11 11 10 10 11 12 13 13 13 12 12 12 12 13 14
12 12 13 14 15 15 16 16 16 16 16 16 16 15 15 15 13 13 13 12 12 12 13 13 14 14 15 15 15 16 16 15 16 16 16 16 15 15 15 16 16 15 16 19 22 25 26 27 27 26 23 17 14 13 12 10 10 10 10 10 10 11 11 10 10 10 11 12 15
13 13 13 14 15 15 16 16 16 16 16 16 16 16 15 14 13 13 12 12 11 11 12 13 15 15 15 16 16 16 16 16 15 15 15 15 15 15 16 16 16 16 16 19 22 24 26 26 27 26 24 19 15 12 11 10 10 10 10 9 9 9 9 9 9 9 9 12 16
13 13 13 14 14 15 16 16 16 16 16 16 16 16 16 15 15 14 14 13 12 12 13 14 16 16 16 16 17 17 17 16 14 14 14 15 15 16 17 17 17 17 17 19 22 24 25 26 26 26 24 18 13 11 10 9 10 10 10 9 8 8 8 8 8 8 9 10 13
13 13 13 14 14 15 15 16 17 16 16 15 16 16 15 15 15 14 14 13 13 13 13 14 16 16 17 17 16 16 17 17 15 14 14 15 15 15 16 16 16 17 17 18 21 23 24 25 26 25 23 18 13 11 9 9 9 10 10 9 8 7 7 7 7 7 8 8 9
Wind_Direction
241 241 240 240 240 241 243 245 245 245 245 245 248 248 247 243 246 248 248 244 244 247 249 248 248 249 248 243 235 231 230 231 230 231 232 234 236 236 236 237 236 236 236 237 236 235 233 230 230 231 232 232 232 231 230 228 227 227 228 228 230 230 230 230 232 231 230 230 230
239 239 240 242 244 244 245 247 248 247 246 244 244 245 245 243 245 248 249 245 243 244 247 252 250 250 250 248 239 234 233 235 233 234 235 237 238 239 239 239 237 236 236 237 236 236 235 232 230 231 232 233 232 232 232 228 226 227 229 229 230 230 230 231 232 231 231 231 231
241 241 241 242 244 245 247 249 250 249 248 248 245 244 243 243 244 247 249 247 247 247 248 253 254 253 251 251 246 239 236 236 236 237 238 240 241 241 240 240 240 239 238 237 236 235 235 232 230 231 232 232 231 232 232 230 226 227 230 230 230 230 231 232 232 230 230 230 229
245 244 243 242 242 242 244 247 250 250 250 250 248 246 244 243 245 247 250 253 254 251 249 250 254 255 254 252 249 245 241 238 237 239 241 244 244 243 242 241 241 240 239 238 237 237 235 233 232 233 233 233 232 232 232 231 227 227 229 230 229 229 230 232 231 229 228 230 228
246 241 239 240 240 241 243 246 249 251 252 252 253 252 250 247 247 249 252 255 254 251 249 247 252 255 256 254 252 250 248 244 242 242 244 246 246 246 244 242 241 241 241 239 238 237 236 233 234 235 236 235 233 232 232 231 229 229 230 231 228 228 228 231 230 228 228 229 228
244 241 239 239 240 244 247 248 248 251 254 258 258 258 256 253 249 248 248 250 252 253 253 253 254 257 258 256 255 254 253 250 246 245 246 248 249 249 247 245 243 242 242 241 239 238 237 233 236 237 237 236 237 236 234 230 230 231 232 233 229 228 227 229 229 228 227 228 227
246 246 245 243 241 244 249 253 254 256 259 261 256 254 254 254 251 248 247 250 256 261 262 260 257 257 258 257 257 256 254 254 251 247 245 247 250 251 250 248 247 245 245 244 242 240 237 232 235 238 239 238 239 237 234 230 230 231 233 233 231 228 227 229 228 227 227 227 226
253 252 249 248 244 244 247 252 257 261 261 256 250 249 249 252 251 251 252 257 260 262 263 264 259 257 257 257 258 258 257 257 256 252 249 248 250 251 251 251 251 249 248 246 244 242 239 234 235 237 238 237 239 237 234 229 228 230 232 234 233 230 226 226 226 225 226 227 226
260 256 251 249 246 243 243 247 249 251 253 252 249 247 247 249 249 250 252 255 256 258 260 262 261 260 259 259 259 260 259 259 258 256 254 251 251 252 253 253 252 252 251 248 246 243 240 237 238 238 238 236 238 238 235 228 228 229 231 234 235 233 230 227 224 224 225 226 226
262 260 257 254 247 239 235 240 238 238 241 248 249 248 247 248 248 247 247 249 258 263 265 263 264 265 265 263 261 260 260 259 258 257 256 254 252 252 252 253 252 253 253 251 247 243 240 238 240 240 239 238 238 239 237 231 229 230 231 233 234 234 233 230 226 225 225 226 227
261 262 261 258 250 241 231 233 232 231 235 244 250 252 252 253 253 252 252 256 267 269 268 266 267 268 267 266 264 262 260 258 257 256 255 254 252 251 251 251 251 252 253 253 250 245 242 240 241 241 241 239 239 239 238 234 232 232 233 235 234 234 234 232 228 227 226 227 227
265 265 264 260 253 244 237 237 237 237 241 251 260 265 268 267 263 262 264 269 268 268 268 267 265 264 265 265 264 263 261 258 255 254 254 253 252 251 250 250 250 251 252 253 250 247 244 242 242 242 242 241 240 239 238 236 234 234 235 236 235 235 235 234 230 228 228 227 228
276 276 274 268 259 252 248 251 252 255 260 265 270 273 274 273 269 268 267 267 265 267 269 269 264 261 260 262 262 262 261 259 255 253 252 252 252 251 251 250 249 250 251 252 249 246 244 243 242 242 243 242 241 239 238 236 234 235 236 237 236 235 235 235 231 230 229 228 229
289 285 281 277 272 265 260 262 263 264 266 268 269 269 269 270 268 263 259 258 260 263 267 269 266 261 258 257 259 259 259 258 256 254 253 253 253 252 251 251 249 249 250 251 248 244 243 243 242 242 243 243 243 241 239 237 236 235 236 236 236 236 235 235 232 230 229 229 230
290 287 284 283 282 276 270 267 266 265 265 265 264 263 262 265 262 258 254 253 255 259 263 266 267 265 261 257 258 258 258 258 257 256 256 255 254 253 252 252 250 249 249 250 248 244 242 242 242 242 243 244 244 243 241 239 238 237 236 236 236 236 235 235 232 230 229 229 230
289 287 287 287 284 281 277 273 272 269 267 266 265 263 261 262 262 259 256 254 257 260 262 263 267 269 268 264 260 258 258 258 257 257 257 257 256 255 253 252 252 250 250 250 249 247 244 242 242 242 243 244 245 245 243 241 240 239 238 237 237 237 236 235 232 230 229 228 230
290 288 287 285 284 282 281 280 280 278 275 273 272 270 267 266 267 265 262 261 265 268 270 270 272 275 276 275 269 264 261 261 258 257 256 257 256 256 254 253 252 251 250 249 250 250 248 245 244 243 243 244 245 245 245 243 242 240 239 239 238 237 237 235 233 231 230 229 230
293 291 289 288 286 285 283 283 283 281 280 278 277 276 273 271 271 272 272 271 272 275 278 279 279 279 279 279 276 272 267 265 263 260 258 257 257 257 256 255 254 253 251 251 251 251 251 249 247 245 244 244 245 245 245 244 243 242 241 240 239 238 237 236 234 232 230 230 231
296 295 294 292 290 288 286 285 284 283 281 279 279 278 277 275 275 277 280 280 279 279 280 282 283 282 280 278 277 275 270 266 265 263 261 259 259 258 258 257 257 255 254 252 252 252 252 252 250 248 246 246 246 246 245 244 243 242 241 241 240 239 238 237 235 233 232 231 232
297 296 295 293 292 291 290 288 286 285 283 282 281 280 279 279 279 280 281 282 282 283 283 283 284 284 283 281 279 277 273 268 266 264 263 261 259 258 258 258 258 257 256 254 254 253 253 253 252 250 248 247 247 247 246 244 244 243 242 241 240 240 238 237 236 235 234 233 233
297 296 295 294 294 294 292 291 289 287 286 284 282 281 280 281 281 280 280 281 284 285 285 284 284 284 284 283 281 278 275 271 267 264 263 262 259 258 257 258 259 259 258 256 255 255 254 254 253 252 250 249 248 247 246 246 245 244 242 242 241 240 239 238 237 236 235 234 234
299 298 297 297 297 295 294 293 292 290 288 285 283 282 282 282 281 281 281 283 285 286 285 285 284 283 282 281 279 278 276 274 269 266 264 263 262 261 259 259 260 261 260 259 258 257 256 255 253 252 251 251 249 248 247 246 246 246 245 243 242 241 240 238 237 236 236 235 235
301 301 301 300 299 298 297 295 294 291 289 287 285 284 284 283 283 283 284 286 286 286 286 285 284 283 281 279 277 276 276 276 273 270 267 265 265 265 264 262 261 261 261 260 258 258 257 257 256 253 251 250 250 249 248 246 246 246 245 245 243 242 240 239 238 237 237 237 236
304 305 305 304 302 300 298 296 295 292 290 288 287 286 285 285 285 286 287 287 286 286 285 285 284 283 282 280 277 274 273 273 273 272 271 268 266 266 265 263 260 259 259 258 257 255 255 255 255 252 250 248 248 247 246 245 244 244 244 244 244 243 242 240 238 237 237 237 237
306 306 306 305 303 301 299 297 295 292 290 288 288 287 287 286 287 287 287 287 286 286 285 285 284 284 282 281 277 273 270 268 269 270 271 270 268 266 264 263 260 258 257 256 258 259 259 258 256 253 248 244 244 244 243 241 240 240 240 241 242 242 243 242 239 238 237 237 236
308 307 306 304 303 301 299 296 294 292 290 289 289 289 288 287 287 287 287 287 286 286 286 286 285 284 283 281 278 274 271 268 267 267 268 270 269 268 266 264 262 259 257 256 259 261 263 264 263 261 258 249 244 242 241 240 237 236 235 237 238 239 240 241 240 238 237 236 235
307 307 305 304 303 300 298 295 294 292 291 291 290 289 289 289 289 289 288 287 287 287 287 286 284 284 283 281 278 275 272 270 269 267 267 267 269 268 268 266 265 262 259 259 262 265 266 267 267 267 266 261 254 247 243 241 236 233 232 233 234 235 236 238 239 239 238 237 235
305 304 304 303 301 299 297 296 295 294 293 292 291 290 290 290 290 289 288 287 287 288 288 286 284 282 281 280 276 274 272 271 271 270 268 267 267 267 267 267 266 264 263 264 266 268 269 270 270 271 271 270 266 258 251 248 242 236 232 231 232 232 233 234 236 237 237 237 236
302 302 302 302 299 298 297 297 296 295 294 293 292 291 291 290 289 288 287 287 287 287 287 286 286 284 282 280 279 277 276 274 273 272 271 270 268 268 267 268 268 268 268 269 270 271 272 273 274 275 275 275 273 269 262 257 251 244 237 232 229 229 229 230 232 233 234 236 236
300 301 300 299 298 297 297 296 295 294 294 293 293 292 291 290 289 288 288 288 287 285 285 285 286 285 283 281 281 281 280 278 276 274 273 271 270 270 270 269 269 270 271 272 273 274 275 276 276 277 278 279 277 274 269 263 260 255 248 240 232 228 227 227 229 230 231 232 234
299 299 298 297 297 296 295 295 295 294 294 293 292 291 290 289 288 288 287 287 286 286 286 286 285 283 282 281 281 280 280 279 278 276 273 272 272 272 272 272 272 271 272 274 275 276 276 277 278 279 280 281 280 277 270 265 263 261 257 251 240 232 226 225 225 226 227 229 231
297 297 296 296 295 294 294 295 294 294 293 292 292 290 290 288 287 287 287 287 288 289 289 288 286 285 284 284 283 281 279 278 277 275 273 272 272 273 273 274 274 273 274 275 276 277 278 279 281 282 284 284 283 280 274 269 266 264 261 258 250 240 231 224 223 223 224 225 227
296 295 295 294 294 294 294 294 294 294 294 293 292 291 291 290 290 290 290 290 290 290 290 289 287 287 286 286 285 284 282 280 278 276 275 274 275 275 276 277 276 276 276 277 278 279 281 283 285 286 287 288 286 284 279 274 270 267 264 261 256 247 237 228 224 221 221 221 223
296 295 294 293 293 294 295 296 296 296 296 296 295 294 293 293 294 294 294 294 293 291 290 288 287 286 285 285 284 284 283 282 281 280 279 278 278 278 278 278 277 277 278 279 281 283 285 287 289 289 290 290 289 286 282 279 275 271 268 264 260 253 244 233 226 222 220 219 221
297 297 296 296 296 297 298 299 300 300 300 299 298 297 297 296 295 295 295 295 295 293 291 289 287 286 285 284 282 282 282 282 282 281 280 279 279 278 277 276 275 276 278 280 283 285 288 290 291 292 292 292 290 287 283 280 276 272 268 265 262 257 250 241 231 224 221 219 221
298 299 300 300 301 302 302 303 303 303 302 301 300 300 299 298 296 295 295 295 295 293 290 289 289 287 286 285 284 282 281 281 281 281 280 279 278 278 277 276 276 277 279 281 284 287 290 292 292 293 294 294 291 288 284 280 276 272 268 265 261 257 252 245 237 229 223 220 220
302 303 304 304 304 304 305 305 305 304 303 301 301 300 299 299 297 296 295 296 294 292 290 290 290 289 288 287 286 284 282 280 281 281 280 279 278 277 277 277 277 278 280 283 287 289 292 293 294 295 295 295 292 290 287 283 279 274 270 266 262 257 252 248 242 235 228 222 220
308 307 307 306 305 305 305 305 304 303 302 301 300 299 299 298 297 296 296 295 293 292 291 292 291 290 289 288 286 284 282 280 279 279 279 279 278 278 278 279 280 281 283 286 289 292 293 295 296 296 296 295 294 292 290 287 284 279 274 269 264 258 253 249 245 239 232 225 224
309 308 307 305 305 304 304 303 303 302 301 301 300 300 299 298 297 296 295 295 292 291 292 292 291 291 290 289 288 286 284 282 280 279 279 280 279 279 280 281 283 285 287 290 292 293 294 295 296 296 296 295 294 292 291 289 285 282 278 273 268 262 255 249 245 242 237 231 230
309 308 306 304 303 303 303 302 301 301 300 300 300 299 299 298 297 297 296 296 294 293 292 292 291 290 290 290 289 288 288 286 284 282 281 282 281 282 283 284 287 288 290 291 292 293 294 294 295 295 296 295 294 292 290 288 285 282 279 275 271 265 259 250 244 241 239 236 235
308 307 306 304 303 302 302 302 301 301 300 299 298 298 298 298 298 298 298 298 296 295 293 292 291 291 290 290 290 290 290 290 288 287 285 285 285 286 286 287 289 289 290 290 291 292 292 293 293 294 295 294 293 291 290 288 286 284 281 278 273 268 263 256 248 243 240 238 238